Probability
0 0 0 0 0 0 0 0 0 0 0 0 0 0 0 0 0 0 0 0 0 0 0 0 0 0 0 0 0 0 0 0 0 0 0 0 0 0 0 0 0 0 0 0
0 0 0 0 0 0 0 0 0 0 0 0 0 0 0 0 0 0 0 0 0 0 0 0 0 0 0 0 0 0 0 0 0 0 0 0 0 0 0 0 0 0 0 0
0 0 0 0 0 0 0 0 0 0 0 0 0 0 0 0 0 0 0 0 0 0 0 0 0 0 0 0 0 0 0 0 0 0 0 0 0 0 0 0 0 0 0 0
0 0 0 0 0 0 0 0 0 0 0 0 0 0 0 0 0 0 0 0 0 0 0 0 0 0 0 0 0 0 0 0 0 0 0 0 0 0 0 0 0 0 0 0
0 0 0 0 0 0 0 0 0 0 0 0 0 0 0 0 0 0 0 0 0 0 0 0 0 0 0 0 0 0 0 0 0 0 0 0 0 0 0 0 0 0 0 0
0 0 0 0 0 0 0 0 0 0 0 0 0 0 0 0 0 0 0 0 0 0 0 0 0 0 0 0 0 0 0 0 0 0 0 0 0 0 0 0 0 0 0 0
0 0 0 0 0 0 0 0 0 0 0 0 0 0 0 0 0 0 0 0 0 0 0 0 0 0 0 0 0 0 0 0 0 0 0 0 0 0 0 0 0 0 0 0
0 0 0 0 0 0 0 0 0 0 0 0 0 0 0 0 0 0 0 0 0 0 0 0 0 0 0 0 0 0 0 0 0 0 0 0 0 0 0 0 0 0 0 0
0 0 0 0 0 0 0 0 0 0 0 0 0 0 0 0 0 0 0 0 0 0 0 0 0 0 0 0 0 0 0 0 0 0 0 0 0 0 0 0 0 0 0 0
0 0 0 0 0 0 0 0 0 0 0 0 0 0 0 0 0 0 0 0 0 0 0 0 0 0 0 0 0 0 0 0 0 0 0 0 0 0 0 0 0 0 0 0
0 0 0 0 0 0 0 0 0 0 0 0 0 0 0 0 0 0 0 0 0 0 0 0 0 0 0 0 0 0 0 0 0 0 0 0 0 0 0 0 0 0 0 0
0 0 0 0 0 0 0 0 0 0 0 0 0 0 0 0 0 0 0 0 0 0 0 0 0 0 0 0 0 0 0 0 0 0 0 0 0 0 0 0 0 0 0 0
0 0 0 0 0 0 0 0 0 0 0 0 0 0 0 0 0 0 0 0 0 0 0 0 0 0 0 0 0 0 0 0 0 0 0 0 0 0 0 0 0 0 0 0
0 0 0 0 0 0 0 0 0 0 0 0 0 0 0 0 0 0 0 0 0 0 0 0 0 0 0 0 0 0 0 0 0 0 0 0 0 0 0 0 0 0 0 0
0 0 0 0 0 0 0 0 0 0 0 0 0 0 0 0 0 0 0 0 0 0 0 0 0 0 0 0 0 0 0 0 0 0 0 0 0 0 0 0 0 0 0 0
0 0 0 0 0 0 0 0 0 0 0 0 0 0 0 0 0 0 0 0 0 0 0 0 0 0 0 0 0 0 0 0 0 0 0 0 0 0 0 0 0 0 0 0
0 0 0 0 0 0 0 0 0 0 0 0 0 0 0 0 0 0 0 0 0 0 0 0 0 0 0 0 0 0 0 0 0 0 0 0 0 0 0 0 0 0 0 0
0 0 0 0 0 0 0 0 0 0 0 0 0 0 0 0 0 0 0 0 0 0 0 0 0 0 0 0 0 0 0 0 0 0 0 0 0 0 0 0 0 0 0 0
0 0 0 0 0 0 0 0 0 0 0 0 0 0 0 0 0 0 0 0 0 0 0 0 0 0 0 0 0 0 0 0 0 0 0 0 0 0 0 0 0 0 0 0
0 0 0 0 0 0 0 0 0 0 0 0 0 0 0 0 0 0 0 0 0 0 0 0 0 0 0 0 0 0 0 0 0 0 0 0 0 0 0 0 0 0 0 0
0 0 0 0 0 0 0 0 0 0 0 0 0 0 0 0 0 0 0 0 0 0 0 0 0 0 0 0 0 0 0 0 0 0 0 0 0 0 0 0 0 0 0 0
0 0 0 0 0 0 0 0 0 0 0 0 0 0 0 0 0 0 0 0 0 0 0 0 0 0 0 0 0 0 0 0 0 0 0 0 0 0 0 0 0 0 0 0
0 0 0 0 0 0 0 0 0 0 0 0 0 0 0 0 0 0 0 0 0 0 0 0 0 0 0 0 0 0 0 0 0 0 0 0 0 0 0 0 0 0 0 0
0 0 0 0 0 0 0 0 0 0 0 0 0 0 0 0 0 0 0 0 0 0 0 0 0 0 0 0 0 0 0 0 0 0 0 0 0 0 0 0 0 0 0 0
0 0 0 0 0 0 0 0 0 0 0 0 0 0 0 0 0 0 0 0 0 0 0 0 0 0 0 0 0 0 0 0 0 0 0 0 0 0 0 0 0 0 0 0
0 0 0 0 0 0 0 0 0 0 0 0 0 0 0 0 0 0 0 0 0 0 0 0 0 0 0 0 0 0 0 0 0 0 0 0 0 0 0 0 0 0 0 0
0 0 0 0 0 0 0 0 0 0 0 0 0 0 0 0 0 0 0 0 0 0 0 0 0 0 0 0 0 0 0 0 0 0 0 0 0 0 0 0 0 0 0 0
Wind_Speed
4 4 2 3 2 2 5 7 7 8 9 8 8 8 6 5 6 6 4 3 2 1 1 2 2 3 3 4 4 4 4 4 5 6 6 6 6 6 7 7 8 7 7 7
5 4 4 3 1 2 4 5 8 9 5 6 5 4 4 5 6 5 4 3 2 1 1 2 3 3 3 4 5 4 4 5 6 6 6 6 7 7 7 7 7 7 7 8
3 6 3 2 2 3 3 4 9 7 7 5 4 6 6 6 6 6 4 3 2 2 2 3 3 3 3 4 4 4 5 6 6 6 6 7 8 7 8 7 7 8 8 8
1 4 1 7 2 6 7 3 5 7 6 7 7 6 5 6 7 6 4 3 2 2 2 3 2 3 3 4 4 5 5 6 6 6 7 7 7 8 8 7 7 7 8 8
3 1 4 3 2 4 7 2 3 7 7 6 6 4 0 4 6 6 4 4 3 3 2 2 3 3 3 4 5 5 6 7 7 7 8 8 9 9 8 7 7 7 7 8
3 2 4 7 4 4 9 2 3 7 7 7 6 2 4 5 5 4 3 3 2 2 1 2 3 3 3 5 5 6 7 7 7 7 7 9 9 9 7 7 7 7 7 7
4 3 6 7 4 4 3 8 6 7 8 7 6 7 6 6 5 4 3 3 2 0 1 3 3 2 3 5 6 7 7 7 8 8 8 8 8 7 8 7 7 7 7 7
4 3 8 7 4 6 9 6 7 7 8 7 6 6 6 6 5 4 3 2 1 0 2 3 3 2 4 6 6 6 6 7 8 8 8 8 8 8 7 7 6 6 6 6
8 9 9 6 8 7 8 8 8 8 8 9 8 7 7 6 5 3 3 2 1 1 3 4 3 2 4 6 6 6 7 8 8 9 8 7 7 8 7 6 5 5 4 5
3 6 5 5 5 6 7 8 8 8 9 9 8 8 7 6 4 3 2 2 2 1 3 4 4 4 4 5 5 5 7 8 7 8 9 8 6 5 5 5 5 5 5 5
3 4 0 2 5 8 7 7 7 7 8 9 10 8 7 6 5 4 3 2 2 2 3 4 4 4 5 4 4 5 7 7 7 7 7 7 7 5 6 5 5 6 5 4
5 7 5 6 7 8 9 9 10 9 8 8 9 9 8 6 5 5 4 3 2 2 3 3 3 4 4 4 4 5 6 7 6 6 6 6 6 8 8 8 9 10 9 7
7 5 5 5 6 8 9 10 10 10 11 9 8 8 8 6 5 5 4 3 3 3 3 3 3 4 4 4 5 5 6 7 6 6 6 6 6 6 7 8 8 8 8 7
4 3 2 3 5 6 8 9 9 9 9 10 8 7 7 6 4 5 4 4 3 2 2 2 3 3 4 5 5 6 6 7 7 6 6 6 6 6 5 5 6 6 6 7
4 5 6 4 4 4 5 7 8 8 8 7 7 8 8 7 6 5 5 4 3 2 2 2 3 4 5 5 5 6 6 5 6 6 6 6 6 6 5 5 5 5 5 5
2 1 2 2 3 4 5 7 8 8 9 9 8 8 8 7 6 5 5 4 3 3 4 3 3 4 5 5 5 5 5 11 9 6 6 6 6 5 5 5 5 5 4 4
5 3 1 0 2 2 4 6 8 8 8 8 9 8 7 6 5 4 4 5 5 4 4 4 4 4 4 4 4 4 5 7 11 7 5 6 6 5 5 5 5 4 4 4
6 4 2 1 2 2 2 2 4 6 7 8 9 8 8 8 7 7 6 5 3 2 3 4 3 3 3 3 3 3 4 5 5 6 5 5 6 5 5 5 5 5 4 4
13 12 10 8 5 2 1 1 3 4 6 7 8 8 8 8 8 7 6 5 4 4 5 4 3 1 2 4 5 3 4 5 6 5 5 7 6 5 5 5 5 4 4 4
15 14 13 12 9 5 2 1 3 4 5 6 7 6 6 7 7 6 5 5 5 5 5 4 2 1 2 4 6 3 4 5 5 5 5 5 6 6 5 5 5 4 4 4
13 13 14 13 12 9 6 3 0 2 4 5 6 7 7 7 6 6 5 4 5 4 4 3 2 2 2 3 5 3 4 5 5 5 5 5 6 5 5 5 5 4 4 4
9 9 10 9 9 9 7 5 3 2 4 5 6 6 6 6 6 5 5 5 5 6 4 3 2 2 2 3 2 3 4 4 4 4 5 5 5 5 5 5 5 4 4 4
7 7 8 8 8 8 8 6 5 4 5 6 7 7 7 7 5 5 4 4 5 6 4 3 4 2 1 1 2 3 3 4 4 5 5 5 5 5 5 5 5 4 4 4
8 8 8 8 7 7 8 9 7 5 6 6 7 7 6 4 4 4 4 8 10 8 4 5 6 3 0 0 1 2 3 4 4 4 5 5 5 5 5 5 5 5 4 5
8 8 7 8 7 6 7 8 7 6 5 5 5 6 5 5 5 4 4 6 8 7 4 5 6 3 1 1 1 2 2 3 4 4 5 5 5 5 5 5 5 5 5 5
8 7 6 6 5 5 5 4 4 4 4 4 5 4 3 2 3 4 4 6 7 7 4 3 3 3 2 1 1 2 2 3 4 4 5 5 5 5 5 5 7 6 5 5
6 5 4 4 5 4 4 4 4 4 4 4 4 4 3 2 3 4 6 5 5 4 4 3 3 3 2 2 1 2 2 3 3 4 4 5 5 5 6 6 5 5 5 5
Wind_Direction
244 259 277 267 252 180 147 162 155 174 171 195 192 187 187 168 147 134 135 140 147 181 246 271 284 289 291 293 295 297 299 295 286 283 284 286 287 285 282 279 281 273 270 268
325 315 322 321 337 112 115 120 130 139 177 203 185 158 145 143 139 139 149 159 168 195 248 272 278 281 291 293 292 294 298 293 289 292 293 291 289 286 284 280 277 274 270 267
290 308 4 320 250 115 103 137 147 167 186 170 156 161 164 159 152 156 168 179 198 232 246 259 268 269 280 285 295 306 302 297 295 295 295 292 294 296 287 282 277 277 272 264
227 9 302 251 238 116 98 63 118 129 152 163 165 169 175 169 159 166 176 190 215 233 248 258 265 276 284 298 307 305 301 300 298 298 297 296 294 290 285 280 277 275 273 268
126 223 282 288 282 146 121 76 139 136 146 146 137 102 164 193 170 175 184 192 205 215 221 250 278 286 304 311 310 308 303 301 299 298 299 301 299 294 289 283 281 275 272 269
147 173 241 245 243 142 101 119 207 150 151 154 140 123 241 204 176 174 176 179 190 213 237 285 284 295 316 310 309 303 298 297 297 296 296 297 295 292 287 283 279 281 279 272
184 208 254 239 216 119 137 221 201 162 159 157 167 193 198 175 177 172 166 169 165 144 286 277 277 302 313 307 298 291 295 300 301 300 297 293 292 290 292 291 290 287 285 283
165 188 249 231 172 173 201 190 168 160 163 159 166 159 154 163 166 161 157 163 150 253 291 284 283 300 306 298 289 295 302 306 306 304 303 308 301 298 297 297 296 295 293 294
184 209 227 201 190 193 159 163 172 166 168 152 149 159 163 166 168 172 169 190 211 239 291 295 290 282 291 288 295 305 311 310 307 308 306 302 299 300 303 302 296 295 296 294
234 258 232 200 179 171 169 168 170 162 159 151 153 160 162 167 177 183 194 205 220 262 297 295 290 287 277 288 301 310 311 309 308 309 309 309 305 299 298 299 297 296 294 291
289 285 306 198 187 180 172 156 152 153 155 156 152 160 166 173 183 191 200 211 210 238 268 279 288 292 294 303 315 315 310 306 308 307 304 307 306 298 291 278 268 272 277 272
234 232 191 216 208 173 163 166 163 157 158 162 160 164 163 172 183 186 193 200 215 249 264 276 286 294 300 306 311 312 311 311 308 307 307 306 308 311 303 289 288 277 262 256
216 219 193 195 178 167 166 172 172 167 167 170 169 161 158 168 181 182 186 193 211 236 251 265 282 293 296 303 309 307 302 303 305 306 307 308 308 307 310 313 307 296 285 275
201 147 135 169 178 178 172 174 170 168 170 167 163 157 153 158 171 180 192 204 203 214 240 256 274 285 290 302 310 306 304 306 311 304 303 304 302 300 295 299 310 313 303 286
204 175 183 194 183 176 163 154 156 169 169 163 158 157 157 162 180 192 193 184 177 207 248 263 269 281 292 304 309 308 307 304 305 305 304 303 303 304 302 301 300 303 307 307
224 56 100 123 167 174 154 157 169 183 177 171 167 168 165 165 175 180 178 172 180 230 249 244 249 269 291 304 311 311 308 314 319 310 308 309 311 312 311 308 306 305 304 296
69 35 18 110 184 189 186 184 184 184 175 168 169 163 155 153 162 182 196 198 204 222 222 215 237 271 292 300 308 307 307 311 318 317 308 307 308 308 306 305 306 309 302 293
49 45 42 137 196 205 209 191 167 158 160 165 160 158 162 168 183 199 206 206 212 223 222 215 234 274 296 299 305 305 304 300 302 303 306 310 309 305 306 309 311 310 309 311
33 30 28 26 14 26 85 131 159 161 159 157 162 172 181 187 190 196 195 197 210 223 231 228 246 263 295 306 327 308 306 305 308 308 310 314 315 310 311 313 313 313 314 317
27 22 20 18 18 19 23 105 155 165 174 171 170 177 191 198 193 192 192 208 214 207 202 206 203 222 284 305 328 308 306 308 311 313 317 319 319 317 317 319 320 318 318 318
19 16 15 10 4 358 355 352 216 200 206 194 187 196 205 209 197 187 189 218 226 198 193 187 173 205 272 303 316 308 311 313 314 315 318 320 322 322 321 323 325 323 322 322
5 3 358 352 348 341 332 326 304 255 230 223 219 212 206 209 206 204 209 210 192 184 179 168 175 214 283 319 313 314 318 320 321 322 322 321 324 324 324 326 327 324 325 322
342 337 333 328 323 315 312 308 293 270 247 235 228 220 215 212 199 191 222 211 170 179 173 179 192 204 322 336 320 325 326 327 327 326 324 323 323 323 322 324 325 324 327 330
326 323 318 315 318 317 310 303 297 284 267 255 243 229 215 210 221 215 195 171 173 175 177 185 192 192 143 358 339 340 333 329 328 326 328 327 330 332 333 334 334 335 338 341
312 311 313 318 319 309 301 304 307 301 289 279 267 247 225 206 201 199 167 164 170 168 172 188 195 178 133 67 11 348 336 331 332 333 336 338 338 340 341 343 346 348 351 352
304 301 300 299 299 301 306 313 313 310 311 306 295 274 246 212 174 148 150 162 167 165 165 175 173 149 121 92 27 1 348 342 345 349 346 346 346 348 348 353 0 3 359 357
305 311 321 332 334 333 333 335 328 320 315 307 296 286 254 196 164 158 155 156 158 156 149 143 134 122 107 83 40 15 2 355 352 352 352 350 349 349 352 359 5 2 5 11